Вернуться в каталог

STARLINK-33594

АктивенСвязьVLEO
NORAD 62770·PAYLOAD·🇺🇸 United States

Запущен Jan 21, 2025 с Vandenberg Space Force Base

Loading…

Ближайшие Пролёты (ближайшие 24 часа)

TLE

СвежийSource: CelesTrak SupGP

Эпоха: Sep 15, 2026, 03:22 UTC

1 62770C 25015N   26258.14076389  .00008707  00000+0  28001-3 0  2589
2 62770  53.1566 160.7710 0001261  87.8202 178.3165 15.31696815    16

Отслеживайте STARLINK-33594 в реальном времени с AllMySat

Download on the App Store